Home > Weather > Mashhad > Past weeks

Flag for Iran Past Weather in Mashhad, Iran — Yesterday and Last 2 Weeks

Now
84 °F

Scattered clouds.


Feels Like: 82 °F
Forecast: 69 / 88 °F
Wind: 12 mph from Northeast

Location: Mashhad Airport

Current Time: Jul 28, 2016 at 7:09:39 PM

Latest Report: Jul 28, 2016 at 6:30 PM


Visibility: N/A

Pressure: 29.89 "Hg (26.75 "Hg at 981m altitude)

Humidity: 29%

Dew Point: 48 °F

Location of MashhadLocation

Past Weather in Mashhad — Graph

°F

Mashhad Temperature Yesterday

Maximum temperature yesterday: 91 °F (at 2:30 PM)
Minimum temperature yesterday: 73 °F (at 4:30 AM)
Average temperature yesterday: 82 °F

High & Low Weather Summary for the Past Weeks

 TemperatureHumidityPressure
High104 °F (Jul 20, 2:30 PM)83% (Jul 28, 6:30 AM)30.09 "Hg (Jul 28, 6:30 AM)
Low66 °F (Jul 15, 5:00 AM)6% (Jul 20, 5:30 PM)29.74 "Hg (Jul 19, 5:30 PM)
Average85 °F26%29.90 "Hg
* Reported Jul 13 5:30 PM — Jul 28 5:30 PM, Mashhad, Weather by CustomWeather, © 2016

Note: Actual official high and low records may vary slightly from our data, if they occured in-between our weather recording intervals... More about our weather records

Advertising

Mashhad Weather History for the Previous 24 Hours

Scroll right to see more
 ConditionsComfort  
Time TempWeatherWind HumidityBarometerVisibility
5:30 PM
Thu, Jul 28
86 °FScattered clouds.14 mph27%29.89 "HgN/A
5:00 PM88 °FScattered clouds.12 mph25%29.89 "HgN/A
4:30 PM88 °FScattered clouds.9 mph25%29.89 "HgN/A
4:00 PM90 °FPassing clouds.14 mph26%29.89 "HgN/A
3:30 PM88 °FPassing clouds.12 mph27%29.89 "HgN/A
3:00 PM88 °FScattered clouds.12 mph29%29.89 "HgN/A
2:30 PM86 °FScattered clouds.12 mph31%29.92 "HgN/A
2:00 PM86 °FScattered clouds.12 mph33%29.92 "HgN/A
1:30 PM86 °FScattered clouds.9 mph33%29.92 "HgN/A
1:00 PM84 °FScattered clouds.12 mph35%29.92 "HgN/A
12:30 PM84 °FPartly sunny.9 mph35%29.95 "HgN/A
12:00 PM82 °FScattered clouds.7 mph37%29.95 "HgN/A
11:30 AM82 °FScattered clouds.7 mph37%29.95 "HgN/A
11:00 AM81 °FPassing clouds.7 mph42%29.98 "HgN/A
10:30 AM79 °FPassing clouds.12 mph45%29.98 "HgN/A
10:00 AM79 °FPassing clouds.9 mph48%29.98 "HgN/A
9:30 AM77 °FPassing clouds.7 mph47%29.98 "HgN/A
9:00 AM75 °FSunny.9 mph54%29.98 "Hg10 mi
8:30 AM73 °FScattered clouds.7 mph65%29.98 "HgN/A
8:00 AM70 °FScattered clouds.9 mph69%29.98 "HgN/A
7:30 AM70 °FScattered clouds.7 mph69%29.98 "HgN/A
7:00 AM68 °FPassing clouds.7 mph73%29.95 "HgN/A
6:30 AM68 °FSprinkles. Partly cloudy.7 mph83%29.95 "Hg5 mi
6:00 AM70 °FSprinkles. Passing clouds.12 mph73%29.95 "Hg5 mi
5:30 AM70 °FThunderstorms. Passing clouds.5 mph78%29.95 "Hg5 mi
5:00 AM73 °FThunderstorms. Passing clouds.5 mph57%29.92 "Hg5 mi
4:30 AM73 °FPassing clouds.7 mph57%29.92 "HgN/A
4:00 AM73 °FPassing clouds.5 mph57%29.92 "HgN/A
3:30 AM73 °FPassing clouds.No wind61%29.92 "HgN/A
3:00 AM75 °FThunderstorms. Passing clouds.7 mph54%29.95 "HgN/A
2:30 AM75 °FThunderstorms. Passing clouds.7 mph57%29.95 "HgN/A
2:00 AM75 °FThunderstorms. Passing clouds.9 mph54%29.92 "HgN/A
1:30 AM73 °FThunderstorms. Passing clouds.9 mph61%29.92 "HgN/A
1:00 AM75 °FThunderstorms. Passing clouds.7 mph57%29.92 "HgN/A
12:30 AM75 °FThunderstorms. Passing clouds.9 mph54%29.92 "HgN/A
12:00 AM75 °FThunderstorms. Passing clouds.5 mph54%29.92 "HgN/A
11:30 PM
Wed, Jul 27
75 °FThunderstorms. Passing clouds.5 mph57%29.92 "HgN/A
11:00 PM75 °FThunderstorms. Passing clouds.7 mph54%29.92 "HgN/A
10:30 PM75 °FPassing clouds.7 mph54%29.92 "HgN/A
10:00 PM77 °FClear.9 mph51%29.92 "Hg10 mi
9:30 PM77 °FClear.9 mph51%29.92 "Hg10 mi
9:00 PM77 °FPassing clouds.9 mph51%29.92 "HgN/A
8:30 PM79 °FScattered clouds.9 mph48%29.89 "HgN/A
8:00 PM81 °FScattered clouds.21 mph48%29.86 "HgN/A
7:30 PM82 °FScattered clouds.12 mph37%29.89 "HgN/A
7:00 PM82 °FScattered clouds.14 mph40%29.86 "HgN/A
Weather by CustomWeather, © 2016

See weather overviewHow to use our weather pages